Fairbanks, AK

4:43 PM AKDT on May 25, 2017 (GMT -0800)
Fairbanks International

Weather History for PAFA - November, 2012

Change the Weather History Date:

Sunday, November 25, 2012

  Actual Average Record
Temperature  
Mean Temperature -19 °F -1 °F  
Max Temperature -14 °F 7 °F 54 °F (1936)
Min Temperature -24 °F -8 °F -43 °F (1994)
Degree Days  
Heating Degree Days 84 66  
Month to date heating degree days 1766 1538  
Since 1 July heating degree days 4051 3797  
Cooling Degree Days 0 0  
Month to date cooling degree days 0 0  
Year to date cooling degree days 34 61  
Moisture  
Dew Point -26 °F    
Average Humidity 72    
Maximum Humidity 78    
Minimum Humidity 59    
Precipitation  
Precipitation 0.00 in 0.02 in 0.25 in (1970)
Month to date precipitation 0.29 0.57  
Year to date precipitation 9.43 10.07  
Snow  
Snow 0.00 in 0.40 in 3.60 in (1970)
Month to date snowfall 4.2 11.1  
Since 1 July snowfall 11.3 23.7  
Since 1 September snowfall 11.3 23.7  
Snow Depth 6.00 in    
Sea Level Pressure  
Sea Level Pressure 30.42 in    
Wind  
Wind Speed 1 mph (NNE)    
Max Wind Speed 5 mph    
Max Gust Speed -    
Visibility 9 miles    
Events      
T = Trace of Precipitation, MM = Missing Value Source: NWS Daily Summary

Daily Weather History Graph

Daily Weather History Graph

Search for Another Location

Airport or City:

Trip Planner

Search our weather history database for the weather conditions in past years. The results will help you decide how hot, cold, wet, or windy it might be!

Date:

Astronomy

Nov. 25, 2012 Rise Set
Actual Time 10:02 AM AKST 3:14 PM AKST
Civil Twilight 8:52 AM AKST 4:24 PM AKST
Nautical Twilight 7:45 AM AKST 5:30 PM AKST
Astronomical Twilight 6:46 AM AKST 6:29 PM AKST
Moon 2:21 PM AKST (11/25) 6:34 AM AKST (11/25)
Length of Visible Light 7h 32m
Length of Day
5h 11m
Waxing Gibbous, 93% of the Moon is Illuminated
Nov 25
Waxing Gibbous
Nov 28
Full
Dec 6
Last Quarter
Dec 12
New
Dec 19
First Quarter

Hourly Weather History & Observations

Time (AKST) Temp. Windchill Dew Point Humidity Pressure Visibility Wind Dir Wind Speed Gust Speed Precip Events Conditions
12:53 AM -20.0 °F -30.7 °F -26.0 °F 74% 30.30 in 5.0 mi NE 3.5 mph - N/A   Clear
1:53 AM -20.0 °F - -27.0 °F 70% 30.32 in 5.0 mi Calm Calm - N/A   Clear
3:53 AM -20.9 °F - -27.0 °F 73% 30.34 in 6.0 mi Calm Calm - N/A   Clear
4:53 AM -20.9 °F - -27.0 °F 73% 30.36 in 6.0 mi Calm Calm - N/A   Clear
5:53 AM -20.9 °F - -27.0 °F 73% 30.36 in 5.0 mi Calm Calm - N/A   Clear
6:53 AM -23.1 °F - -29.0 °F 74% 30.38 in 6.0 mi Calm Calm - N/A   Clear
7:53 AM -22.0 °F - -29.0 °F 70% 30.39 in 6.0 mi Calm Calm - N/A   Clear
8:53 AM -24.0 °F -37.9 °F -29.9 °F 74% 30.40 in 10.0 mi NNE 4.6 mph - N/A   Partly Cloudy
9:53 AM -22.0 °F - -27.9 °F 74% 30.40 in 10.0 mi Calm Calm - N/A   Partly Cloudy
10:53 AM -20.9 °F - -27.9 °F 70% 30.42 in 10.0 mi Calm Calm - N/A   Partly Cloudy
11:53 AM -20.0 °F - -27.0 °F 70% 30.43 in 10.0 mi Calm Calm - N/A   Partly Cloudy
12:53 PM -16.1 °F - -22.0 °F 74% 30.44 in 10.0 mi Calm Calm - N/A   Partly Cloudy
1:53 PM -16.1 °F - -23.1 °F 71% 30.44 in 10.0 mi Calm Calm - N/A   Partly Cloudy
2:53 PM -17.0 °F - -22.0 °F 78% 30.45 in 10.0 mi Calm Calm - N/A   Clear
3:53 PM -18.0 °F - -24.0 °F 74% 30.45 in 10.0 mi Calm Calm - N/A   Clear
4:53 PM -20.0 °F - -26.0 °F 74% 30.45 in 10.0 mi Calm Calm - N/A   Clear
5:53 PM -20.0 °F - -25.1 °F 78% 30.46 in 10.0 mi Calm Calm - N/A   Clear
6:53 PM -20.0 °F - -25.1 °F 78% 30.46 in 10.0 mi Calm Calm - N/A   Clear
7:53 PM -23.1 °F - -29.0 °F 74% 30.48 in 10.0 mi Calm Calm - N/A   Clear
8:53 PM -20.9 °F - -26.0 °F 77% 30.49 in 10.0 mi Calm Calm - N/A   Clear
9:53 PM -23.1 °F - -27.9 °F 78% 30.49 in 10.0 mi Calm Calm - N/A   Clear
10:53 PM -20.9 °F -31.7 °F -27.0 °F 73% 30.50 in 10.0 mi NNE 3.5 mph - N/A   Clear
11:53 PM -20.9 °F - -27.0 °F 73% 30.49 in 10.0 mi Calm Calm - N/A   Clear